Tracking 19636 objects as of 24-May-2019
HD Live streaming from Space Station
objects crossing your sky now

BREEZE-M DEB (TANK)

Track BREEZE-M DEB (TANK) now!
10-day predictions
BREEZE-M DEB (TANK) is classified as:


NORAD ID: 28116
Int'l Code: 2003-056E
Perigee: 288.9 km
Apogee: 18,498.3 km
Inclination: 52.9 °
Period: 328.3 minutes
Semi major axis: 15764 km
RCS: 6.743 m2 (large)
Launch date: December 10, 2003
Source: Commonwealth of Independent States (former USSR) (CIS)
Launch site: TYURATAM MISSILE AND SPACE COMPLEX (TTMTR)

Note: This is SATELLITE DEBRIS
aabbcc
Your satellite tracking list
Your tracking list is empty




NASA's NSSDC Master Catalog

Two Line Element Set (TLE):
1 28116U 03056E   19142.42907283 +.00001131 +00000-0 +19530-3 0  9991
2 28116 052.8654 123.8219 5775393 120.4117 308.8014 04.38609955243935
Source of the keplerian elements: AFSPC